www.pogodaiklimat.ru

Погода и климат >> Архив погоды >> Россия >> Сахалинская область >> Оха


ПОГОДА в Оха

  • Прогноз погоды в Оха
  • Монитор погоды в Оха
  • Климат города

АРХИВ ПОГОДЫ в Оха

Время (UTC), дата Ветер
(напр.,м/с)
 
Видим.   Явления Облачность Т
(С)
Тd
(С)
f
(%)
Тe
(С)
Тes
(С)
Комфортность P
(гПа)
Po
(гПа)
Тmin
(С)
Tmax
(С)
R
(мм)
S
(см)
00 19.03 СЗ 6-9
{10}
20 км 3/0
[Ci fib]
-7.0 -12.2 66 -15 -13 1016.5 1011.5
06 19.03 СЗ 8-13
{15}
20 км 3/0
[Ci fib]
-4.7 -9.7 68 -13 -13 1016.3 1011.4
12 19.03 СЗ 5-8
{10}
20 км 3/0
[Ci fib]
-10.9 -12.7 87 -19 -19 1016.9 1011.9
18 19.03 СЗ 4-5
{8}
20 км 3/0
[Ci fib]
-15.0 -16.6 88 -23 -23 1015.6 1010.5
00 20.03 СЗ 6-8
{9}
20 км ясно -9.2 -13.7 70 -18 -15 1015.4 1010.4
06 20.03 СЗ 5-8
{9}
20 км ясно -5.2 -10.9 64 -12 -10 1014.1 1009.2
12 20.03 СЗ 3-6
{8}
20 км ясно -11.7 -12.8 92 -18 -18 1014.2 1009.2
18 20.03 З 1-2
{4}
20 км ясно -19.3 -21.2 85 -22 -22 1013.0 1007.8
00 21.03 СЗ 3-6
{6}
20 км ясно -10.0 -13.8 74 -16 -11 1012.5 1007.5
06 21.03 СЗ 5-7
{8}
20 км ясно -4.6 -11.6 58 -11 -10 1011.7 1006.9
12 21.03 СЗ 3-4
{7}
20 км 9/9 150 м
[St]
-10.6 -11.5 93 -17 -17 1012.7 1007.7
18 21.03 З 2-3
{3}
20 км 9/9 150 м
[St]
-14.7 -16.1 89 -20 -20 1012.0 1006.9
00 22.03 З 4-7
{7}
20 км 9/9 300 м
[Sc]
-6.8 -9.3 82 -13 -13 1012.0 1007.1
06 22.03 СЗ 5-9
{9}
20 км 9/5 360 м
[Cb cap Ac trans]
-4.5 -6.4 87 -12 -11 1012.0 1007.2
12 22.03 СЗ 3-5
{7}
4000 м слабый ливневой снег 10/10 180 м
[Cb cap]
-5.4 -6.4 93 -11 -11 1013.0 1008.1
15 22.03 СЗ 3-5
{7}
4000 м слабый ливневой снег 10/10 180 м
[Cb cap]
-5.4 -6.4 93 -11 -11 1013.0 1008.1
18 22.03 СЗ 2-3
{4}
20 км в посл. час ливневой снег 9/9 270 м
[Cb cap]
-4.6 -4.7 99 -9 -9 1012.5 1007.6
00 23.03 С 4-6
{8}
4000 м слабый ливневой снег 10/10 240 м
[Cb cap]
-1.6 -3.2 89 -7 -7 1013.7 1008.9
06 23.03 С 4-7
{7}
20 км {ливн. осадки} 8/6 400 м
[Cb cap Ci sp]
+0.9 -4.6 67 -4 -3 1013.9 1009.1
12 23.03 СЗ 4-7
{9}
20 км 8/4 300 м
[Cb cap Ci sp]
-6.7 -7.4 95 -13 -13 1015.4 1010.5
18 23.03 СЗ 3-5
{5}
20 км 3/0
[Ci fib]
-11.5 -12.2 95 -17 -17 1014.6 1009.5
00 24.03 СЗ 3-4
{5}
2000 м слабый ливневой снег 10/6 420 м
[Cb cap Ac und]
-6.4 -8.1 88 -12 -11 1014.6 1009.7
06 24.03 СЗ 5-8
{8}
4000 м слабый ливневой снег 10/6 300 м
[Cb cap Ac und]
-2.2 -3.9 88 -9 -9 1013.8 1009.0
12 24.03 СЗ 3-4
{6}
4000 м слабый ливневой снег 10/10 300 м
[Cb cap]
-3.2 -3.2 100 -9 -9 1015.3 1010.4
18 24.03 СЗ 2-3
{4}
4000 м слабый ливневой снег 9/6 300 м
[Cb cap Ac trans]
-4.3 -4.3 100 -9 -9 1015.0 1010.1
21 24.03 СЗ 2-2
{4}
4000 м слабый ливневой снег 10/8 300 м
[Cb cap Ac und]
-4.7 -4.7 100 -9 -9 1015.6 1010.7 -4.8 0.7 96
00 25.03 СЗ 3-4
{5}
4000 м слабый ливневой снег 10/5 300 м
[Cb cap Ac und]
-2.4 -3.0 96 -8 -7 1016.1 1011.3
03 25.03 СЗ 3-4
{5}
4000 м слабый ливневой снег 10/5 300 м
[Cb cap Ac und]
-2.4 -3.0 96 -8 -7 1016.1 1011.3
06 25.03 СЗ 3-4
{6}
4000 м слабый ливневой снег 10/5 300 м
[Cb cap Ac und]
-2.3 -4.5 85 -7 -7 1016.8 1011.9
09 25.03 СЗ 1-2
{4}
4000 м слабый ливневой снег 10/5 300 м
[Cb cap Ac und]
-3.3 -4.6 91 -6 -6 1017.5 1012.6 -1.3 1
12 25.03 СЗ 1-2
{3}
20 км {ливн. осадки} 9/3 300 м
[Cb cap Ci sp]
-6.1 -6.3 98 -9 -9 1018.0 1013.1
15 25.03 штиль 0
{2}
20 км 9/3 300 м
[Cb cap Ci sp]
-6.3 -6.4 99 -7 -7 1017.7 1012.7
18 25.03 З 2-2
{3}
4000 м дымка 9/0
[Ci sp]
-10.1 -10.6 96 -15 -15 1017.7 1012.6
21 25.03 СЗ 1-1
{2}
20 км местами туман поземный 8/3 200 м
[St Ac trans]
-13.0 -14.0 92 -15 -15 1018.0 1012.9 -13.2 0.7 98

 

Местоположение метеостанции Оха (Сахалинская область, Россия): широта 53.50 долгота 142.90 высота над уровнем моря 37 м.

В архиве по умолчанию представлена погода в Оха за последнюю неделю. Архивные данные за месяц целиком и за предыдущие месяцы, начиная с января 2011 года, Вы можете получить, выбрав интересующий диапазон дат из раскрывающегося списка и нажав кнопку "Ввод!".

Внимание! Время в таблицах - всемирное. Для получения местного времени необходимо прибавить поправку, которая в Оха равна 11 ч.

Смотрите также архив погоды в соседних городах и на ближайших метеорологических станциях:

Погода в Одопту (Сахалинская область, Россия) (23 км)
Погода в Москальво (Сахалинская область, Россия) (28 км)
Погода в Ныврово (Сахалинская область, Россия) (94 км)
Погода в Байдукове (Хабаровский край, Россия) (102 км)
Погода в Вал (Сахалинская область, Россия) (130 км)
Погода в Джаоре (Хабаровский край, Россия) (146 км)
Погода в Николаевск-на-Амуре (Хабаровский край, Россия) (151 км)
Погода в Погибях (Сахалинская область, Россия) (167 км)
Погода в Ногликах (Сахалинская область, Россия) (176 км)
Погода в Литке (Хабаровский край, Россия) (178 км)

Пояснения к столбцам:

Ветер - указаны скорость ветра в м/с - средняя за 10 мин, порывы в срок и между сроками (в фигурных скобках) и направление, откуда дует ветер: С - северный, СВ - северо-восточный, В - восточный, ЮВ - юго-восточный, Ю - южный, ЮЗ - юго-западный, З - западный, СЗ - северо-западный.
Видимость - горизонтальная дальность видимости в метрах или километрах. При видимости от 1 до 10 км при отсутствии осадков обычно наблюдается дымка, при ухудшении видимости до 1 км и менее - туман. В сухую погоду видимость может ухудшаться дымом, пылью или мглою.
Явления - указаны атмосферные явления, наблюдавшиеся в срок или в последний час перед сроком; фигурными скобками обозначены явления, наблюдавшиеся между сроками (за 1-3 часа до срока); квадратными скобками обозначены град или гололедные отложения с указанием их диаметра в мм.
Облачность - указаны через наклонную черту общая и нижняя облачность в баллах и высота нижней границы облаков в метрах; квадратными скобками обозначены формы облаков: Ci - перистые, Cs - перисто-слоистые, Cc - перисто-кучевые, Ac - высококучевые, As - высокослоистые, Sc - слоисто-кучевые, Ns - слоисто-дождевые, Cu - кучевые, Cb - кучево-дождевые. Подробнее классификацию облаков см. в Атласе облаков (PDF).
T - Температура воздуха - температура, измеренная на высоте 2 м над землей.
Td - Температура точки росы - температура, при понижении до которой содержащийся в воздухе водяной пар достигнет насыщения.
f - Относительная влажность воздуха - влажноcть воздуха, измеренная на высоте 2 м над землей.
Te - Эффективная температура - температура, которую ощущает одетый по сезону человек в тени. Характеристика душности погоды. При расчете учитывается влияние влажности воздуха и скорости ветра на теплоощущения человека.
Tes - Эффективная температура на солнце - температура, которую ощущает человек, с поправкой на солнечный нагрев. Характеристика знойности погоды. Зависит от высоты солнца над горизонтом, облачности и скорости ветра. Ночью, в пасмурную погоду, а также при ветре 12 м/с и более поправка равна нулю.
P - Атмосферное давление - приведенное к уровню моря атмосферное давление.
Po - Атмосферное давление - измеренное на уровне метеостанции атмосферное давление.
Tmin - Минимальная температура - минимум температуры воздуха на высоте 2 м над землей.
Tmax - Максимальная температура - максимум температуры воздуха на высоте 2 м над землей.
R - Количество осадков - Количество выпавших осадков, мм. При наведении курсора мыши на число - период времени, за который выпало указанное количество осадков.
S - Снежный покров - Высота снежного покрова, см. При наведении курсора мыши на число - состояние снежного покрова и степень покрытия местности в баллах.